TimeEDT,TemperatureF,Dew PointF,Humidity,Sea Level PressureIn,VisibilityMPH,Wind Direction,Wind SpeedMPH,Gust SpeedMPH,PrecipitationIn,Events,Conditions,WindDirDegrees,DateUTC
12:17 AM,21.9,18.0,85,29.71,10.0,WSW,6.9,-,N/A,,Clear,250,2013-03-20 04:17:00
12:36 AM,22.1,18.0,84,29.71,10.0,WSW,5.8,-,N/A,,Clear,250,2013-03-20 04:36:00
12:57 AM,22.1,18.1,85,29.71,10.0,WSW,6.9,-,N/A,,Clear,250,2013-03-20 04:57:00
1:17 AM,21.7,17.8,85,29.72,10.0,WSW,8.1,-,N/A,,Clear,250,2013-03-20 05:17:00
1:36 AM,21.6,17.6,85,29.72,10.0,WSW,6.9,-,N/A,,Scattered Clouds,250,2013-03-20 05:36:00
1:57 AM,21.2,17.4,85,29.72,10.0,West,6.9,-,N/A,,Scattered Clouds,260,2013-03-20 05:57:00
2:16 AM,21.0,17.2,85,29.72,10.0,West,8.1,-,N/A,,Scattered Clouds,260,2013-03-20 06:16:00
2:37 AM,20.7,16.9,85,29.72,10.0,West,5.8,-,N/A,,Clear,270,2013-03-20 06:37:00
2:56 AM,20.3,16.7,86,29.72,10.0,WSW,6.9,-,N/A,,Clear,250,2013-03-20 06:56:00
3:17 AM,20.1,16.3,85,29.72,10.0,West,6.9,-,N/A,,Clear,260,2013-03-20 07:17:00
3:37 AM,20.1,16.3,85,29.72,10.0,West,6.9,-,N/A,,Clear,260,2013-03-20 07:37:00
3:56 AM,19.8,15.8,85,29.73,10.0,West,6.9,-,N/A,,Clear,260,2013-03-20 07:56:00
4:17 AM,19.4,15.8,86,29.73,10.0,West,6.9,-,N/A,,Clear,260,2013-03-20 08:17:00
4:37 AM,19.4,15.8,86,29.73,10.0,West,6.9,-,N/A,,Clear,260,2013-03-20 08:37:00
4:56 AM,19.4,15.8,86,29.73,10.0,West,5.8,-,N/A,,Clear,260,2013-03-20 08:56:00
5:17 AM,19.0,15.4,86,29.73,10.0,WSW,5.8,-,N/A,,Clear,250,2013-03-20 09:17:00
5:36 AM,18.7,15.1,86,29.73,10.0,WSW,5.8,-,N/A,,Clear,250,2013-03-20 09:36:00
5:56 AM,18.5,14.9,86,29.73,10.0,West,6.9,-,N/A,,Clear,260,2013-03-20 09:56:00
6:16 AM,18.5,14.7,85,29.73,10.0,West,5.8,-,N/A,,Clear,260,2013-03-20 10:16:00
6:36 AM,18.1,14.4,85,29.73,10.0,WSW,6.9,-,N/A,,Clear,250,2013-03-20 10:36:00
6:57 AM,18.1,14.5,86,29.73,10.0,WSW,6.9,-,N/A,,Clear,240,2013-03-20 10:57:00
7:16 AM,18.1,14.7,86,29.73,10.0,WSW,5.8,-,N/A,,Clear,250,2013-03-20 11:16:00
7:36 AM,17.6,14.4,87,29.73,10.0,WSW,6.9,-,N/A,,Clear,250,2013-03-20 11:36:00
7:57 AM,17.4,14.4,88,29.73,10.0,WSW,4.6,-,N/A,,Clear,250,2013-03-20 11:57:00
8:16 AM,17.4,14.2,87,29.73,10.0,West,5.8,-,N/A,,Clear,260,2013-03-20 12:16:00
8:37 AM,18.5,14.4,84,29.73,10.0,WSW,6.9,-,N/A,,Clear,250,2013-03-20 12:37:00
8:57 AM,19.4,14.7,82,29.73,10.0,WSW,8.1,-,N/A,,Clear,250,2013-03-20 12:57:00
9:16 AM,20.3,14.9,80,29.72,10.0,WSW,8.1,-,N/A,,Clear,250,2013-03-20 13:16:00
9:37 AM,21.2,14.9,77,29.72,10.0,WSW,6.9,-,N/A,,Clear,250,2013-03-20 13:37:00
9:56 AM,22.3,14.9,73,29.72,10.0,West,8.1,17.3,N/A,,Clear,260,2013-03-20 13:56:00
10:16 AM,23.0,15.3,72,29.73,10.0,West,4.6,-,N/A,,Clear,270,2013-03-20 14:16:00
10:37 AM,24.4,15.6,69,29.73,10.0,WSW,8.1,-,N/A,,Clear,240,2013-03-20 14:37:00
10:56 AM,25.5,16.3,68,29.73,10.0,SW,6.9,-,N/A,,Mostly Cloudy,230,2013-03-20 14:56:00
11:16 AM,26.6,16.9,67,29.72,10.0,WSW,6.9,-,N/A,,Overcast,250,2013-03-20 15:16:00
11:56 AM,26.8,16.7,66,29.72,10.0,West,9.2,16.1,N/A,,Mostly Cloudy,260,2013-03-20 15:56:00
12:16 PM,27.3,17.1,65,29.72,10.0,West,9.2,-,N/A,,Mostly Cloudy,280,2013-03-20 16:16:00
12:37 PM,27.0,17.1,66,29.72,10.0,SW,10.4,-,N/A,,Mostly Cloudy,230,2013-03-20 16:37:00
12:56 PM,27.7,18.1,67,29.72,10.0,WSW,6.9,-,N/A,,Overcast,250,2013-03-20 16:56:00
1:13 PM,27.7,18.3,68,29.72,10.0,SW,13.8,19.6,N/A,,Overcast,230,2013-03-20 17:13:00
1:37 PM,28.4,19.2,69,29.72,10.0,WSW,11.5,18.4,N/A,Snow,Light Snow,250,2013-03-20 17:37:00
1:56 PM,27.3,19.2,72,29.72,10.0,WSW,13.8,18.4,N/A,,Overcast,250,2013-03-20 17:56:00
2:17 PM,27.5,19.2,71,29.72,7.0,WSW,15.0,26.5,N/A,,Overcast,240,2013-03-20 18:17:00
2:37 PM,27.7,19.4,71,29.72,7.0,WSW,15.0,23.0,N/A,,Overcast,250,2013-03-20 18:37:00
2:56 PM,26.8,20.5,77,29.72,5.0,WSW,10.4,18.4,N/A,,Haze,250,2013-03-20 18:56:00
3:17 PM,26.6,20.3,77,29.72,3.0,WSW,15.0,24.2,N/A,Snow,Light Snow,250,2013-03-20 19:17:00
3:36 PM,26.4,20.3,78,29.72,5.0,WSW,10.4,26.5,N/A,,Haze,240,2013-03-20 19:36:00
3:56 PM,26.6,20.5,78,29.72,5.0,SW,9.2,21.9,N/A,,Haze,230,2013-03-20 19:56:00
4:17 PM,26.6,21.2,80,29.72,5.0,WSW,9.2,21.9,N/A,,Haze,240,2013-03-20 20:17:00
4:36 PM,26.6,21.7,82,29.71,2.5,WSW,10.4,21.9,N/A,Snow,Light Snow,240,2013-03-20 20:36:00
4:56 PM,27.5,22.5,81,29.72,3.0,WSW,15.0,23.0,N/A,Snow,Light Snow,250,2013-03-20 20:56:00
5:17 PM,27.0,22.5,83,29.72,7.0,WSW,15.0,24.2,N/A,,Overcast,250,2013-03-20 21:17:00
5:36 PM,26.6,22.6,85,29.72,3.0,WSW,12.7,20.7,N/A,Snow,Light Snow,250,2013-03-20 21:36:00
5:57 PM,27.1,23.5,86,29.72,3.0,WSW,10.4,16.1,N/A,Snow,Light Snow,240,2013-03-20 21:57:00
6:17 PM,27.0,23.7,88,29.73,2.0,WSW,10.4,17.3,N/A,Snow,Light Snow,250,2013-03-20 22:17:00
6:36 PM,26.4,23.7,90,29.73,1.2,WSW,6.9,16.1,N/A,Snow,Light Snow,250,2013-03-20 22:36:00
6:57 PM,26.4,23.9,90,29.73,3.0,WSW,5.8,-,N/A,Snow,Light Snow,250,2013-03-20 22:57:00
7:16 PM,26.4,24.3,92,29.73,5.0,WSW,6.9,-,N/A,Snow,Light Snow,240,2013-03-20 23:16:00
7:36 PM,26.4,24.4,92,29.74,4.0,WSW,5.8,-,N/A,Snow,Light Snow,250,2013-03-20 23:36:00
7:57 PM,26.6,24.6,92,29.75,10.0,West,4.6,-,N/A,,Overcast,260,2013-03-20 23:57:00
8:16 PM,26.6,24.8,93,29.75,2.5,West,3.5,-,N/A,Snow,Light Snow,260,2013-03-21 00:16:00
8:36 PM,26.4,24.8,94,29.74,3.0,West,3.5,-,N/A,Snow,Light Snow,270,2013-03-21 00:36:00
8:57 PM,26.4,24.6,93,29.75,4.0,West,3.5,-,N/A,Snow,Light Snow,270,2013-03-21 00:57:00
9:16 PM,26.2,23.9,91,29.75,5.0,West,3.5,-,N/A,Snow,Light Snow,270,2013-03-21 01:16:00
9:37 PM,26.2,24.3,92,29.74,3.0,West,5.8,-,N/A,Snow,Light Snow,270,2013-03-21 01:37:00
9:57 PM,26.1,23.9,92,29.74,10.0,West,3.5,-,N/A,Snow,Light Snow,270,2013-03-21 01:57:00
10:16 PM,26.1,23.9,92,29.74,4.0,West,4.6,-,N/A,Snow,Light Snow,270,2013-03-21 02:16:00
10:37 PM,26.1,24.3,93,29.74,5.0,West,6.9,-,N/A,Snow,Light Snow,270,2013-03-21 02:37:00
10:57 PM,26.2,24.4,93,29.73,5.0,West,5.8,-,N/A,Snow,Light Snow,280,2013-03-21 02:57:00
11:16 PM,25.7,23.9,93,29.73,10.0,WNW,4.6,-,N/A,,Overcast,290,2013-03-21 03:16:00
11:37 PM,25.7,23.9,93,29.73,10.0,WNW,4.6,-,N/A,,Overcast,290,2013-03-21 03:37:00
11:56 PM,25.5,23.7,93,29.73,10.0,WNW,5.8,-,N/A,,Overcast,290,2013-03-21 03:56:00